sat.trackr.live / text

‹ back to catalog

STARLINK-3274

NORAD 50186 · 2021-125AG

PAYLOAD ACTIVE UNKNOWN

§ Identity

Operator
Country
US
Launch date
2021-12-18
Launch site
AFWTR
Launch vehicle
Mass (kg)
RCS (m²)

Purposes: comms

External: N2YO · Heavens-Above · Gunter

§ Orbital elements

Epoch: 2026-09-09T22:48:00.457920Z

Period
94.01 min
Inclination
53.1591°
Eccentricity
0.0001233
Mean motion
15.31696893 rev/d
Perigee alt
469.9 km
Apogee alt
471.6 km
Semi-major
6,848.9 km
B*
-3.7859e-6
RAAN
139.9571°
Arg perigee
85.2887°
Mean anomaly
274.8256°
Rev number
26,443

§ Raw data

STARLINK-32741 50186U 21125AG  26252.95000530 -.00000483  00000+0 -37859-5 0  99932 50186  53.1591 139.9571 0001233  85.2887 274.8256 15.31696893264432

JSON: /api/v1/satellites/50186 · /tle

For live sub-satellite position, see the globe view (requires WebGL).

§ Visibility from observer

Set your observer location to see the next 7 days of passes ≥ 10°. The values pass through the URL so the page stays shareable.

No JS? Fill the form by hand. The geolocation button needs JavaScript.